www.pogodaiklimat.ru

Погода и климат >> Архив погоды >> Молдова >> Штефан Водэ


ПОГОДА в Штефан Водэ

  • Прогноз погоды в Штефан Водэ
  • Монитор погоды в Штефан Водэ

АРХИВ ПОГОДЫ в Штефан Водэ

Время (UTC), дата Ветер
(напр.,м/с)
 
Видим.   Явления Облачность Т
(С)
Тd
(С)
f
(%)
Тe
(С)
Тes
(С)
Комфортность P
(гПа)
Po
(гПа)
Тmin
(С)
Tmax
(С)
R
(мм)
R24
(мм)
S
(см)
15 13.06 СВ 2 20 км 5/5 1000 м
[Cu hum]
+28.2 +10.0 32 +28 +31 жарко 1014.9 995.0
18 13.06 С 1 20 км 8/8 600 м
[Cb calv]
+24.3 +12.0 46 +26 +26 жарко 1015.7 995.7 +30.6
21 13.06 СЗ 3-2
{2}
10 км в посл. час гроза {ливн. осадки} 9/9 600 м
[Cb calv]
+20.2 +15.0 72 +23 +23 комфорт 1017.2 997.1
00 14.06 С 4 10 км {гроза, ливн. осадки} 9/0
[Ac trans]
+20.9 +14.1 65 +24 +24 комфорт 1016.8 996.7
03 14.06 С 2 20 км 4/0
[Ci fib]
+19.2 +14.5 74 +21 +21 комфорт 1016.9 996.7
06 14.06 С 3 20 км ясно +22.7 +15.3 63 +27 +33 душно 1017.1 996.9 +18.8 0.8
09 14.06 С 3 20 км 8/0
[Ac trans Ci fib]
+27.9 +17.1 52 +32 +41 душно 1017.0 997.1
12 14.06 штиль 0-6
{7}
20 км 9/0
[Ac trans Ci fib]
+30.3 +17.1 45 +34 +45 очень
душно
1016.3 996.6
15 14.06 ЮВ 1 20 км в посл. час гроза {ливн. осадки} 9/8 600 м
[Cb calv Ac trans Ci fib]
+22.5 +20.0 86 +29 +30 очень
душно
1016.9 996.7
18 14.06 С 1
{14}
20 км {гроза, ливн. осадки} 8/0
[Ac trans Ci fib]
+22.8 +14.6 60 +26 +26 жарко 1016.6 996.4 +31.6 7
21 14.06 С 1-2
{3}
10 км 9/0
[Ac trans]
+22.7 +15.5 64 +27 +27 душно 1017.9 997.7
00 15.06 С 1-2
{2}
10 км 3/0
[Ac trans]
+21.0 +16.6 76 +26 +26 душно 1016.9 996.6
03 15.06 С 1 20 км 8/0
[Ci fib]
+20.4 +16.8 80 +25 +25 комфорт 1016.9 996.5
06 15.06 С 2 20 км 6/0
[Ci fib]
+24.8 +18.7 69 +30 +37 душно 1016.4 996.6 +20.1
09 15.06 С 2-3
{4}
20 км 4/3 1000 м
[Cu hum Ci fib]
+29.1 +18.3 52 +34 +46 очень
душно
1015.1 995.5
12 15.06 СЗ 5
{12}
20 км гроза без осадков 8/8 600 м
[Cb cap]
+26.4 +14.8 49 +29 +31 жарко 1013.5 993.8
15 15.06 С 1-4
{4}
20 км {гроза, ливн. осадки} 8/0
[Ac trans]
+23.5 +17.3 68 +27 +30 душно 1014.1 994.1
18 15.06 С 2-1
{3}
20 км {гроза, ливн. осадки} 9/0
[Ac trans Ci fib]
+22.6 +17.3 72 +27 +27 душно 1013.6 993.6 +30.9 9
21 15.06 С 2 10 км 9/0
[Ci fib]
+21.8 +16.5 72 +26 +26 душно 1014.3 994.2
00 16.06 С 1 10 км ясно +20.5 +16.5 78 +25 +25 комфорт 1013.4 993.3
03 16.06 С 2-1
{1}
20 км ясно +19.7 +16.7 83 +23 +23 комфорт 1013.3 993.1
06 16.06 С 2 20 км 3/0
[Ci fib]
+24.6 +19.0 71 +30 +37 очень
душно
1013.5 993.5 +19.5
09 16.06 С 1-3
{3}
20 км 3/3 1000 м
[Cu hum]
+29.4 +15.9 44 +32 +47 душно 1013.0 993.3
12 16.06 В 1-3
{5}
20 км {гроза, ливн. осадки} 8/8 600 м
[Cb calv]
+32.5 +12.7 30 +33 +37 жарко 1011.5 992.0
15 16.06 СВ 1 20 км 3/3 1000 м
[Cu hum]
+31.4 +12.7 32 +32 +36 жарко 1010.8 991.3
18 16.06 С 1 20 км 8/0
[Ac trans Ci fib]
+26.2 +14.0 47 +28 +28 жарко 1012.2 992.3 +32.9
21 16.06 С 2-1
{2}
10 км ясно +23.7 +15.0 58 +27 +27 жарко 1013.3 993.2
00 17.06 СВ 2 10 км ясно +22.0 +15.4 66 +26 +26 душно 1013.8 993.6
03 17.06 С 1 20 км ясно +20.3 +15.7 75 +24 +25 комфорт 1014.9 994.6
06 17.06 СВ 1-4
{4}
20 км ясно +24.6 +15.5 57 +28 +37 душно 1014.6 994.8 +19.9 157
09 17.06 СВ 2-2
{4}
20 км 3/0
[Ci fib]
+28.6 +12.1 36 +30 +46 жарко 1014.2 994.6
12 17.06 С 2 20 км 8/0
[Ci fib]
+30.0 +11.5 32 +31 +44 жарко 1014.1 994.5
15 17.06 штиль 0-4
{6}
20 км 8/0
[Ci fib]
+30.7 +12.6 33 +32 +37 жарко 1012.9 993.5
18 17.06 штиль 0 20 км 5/0
[Ac trans Ci fib]
+23.9 +15.1 58 +27 +27 жарко 1014.1 994.1 +31.0
21 17.06 С 1 10 км ясно +22.1 +14.7 63 +25 +25 комфорт 1016.0 995.8
00 18.06 С 2-2
{3}
10 км {гроза, ливн. осадки} 4/0
[Ci fib]
+19.9 +15.3 75 +23 +23 комфорт 1016.0 995.8 0.3
03 18.06 С 1 20 км 4/0
[Ac trans]
+18.9 +15.6 81 +21 +22 комфорт 1015.8 995.6
06 18.06 С 2-4
{5}
20 км 6/0
[Ci fib]
+23.5 +16.5 65 +27 +34 душно 1016.1 996.2 +18.6
09 18.06 СЗ 1-4
{5}
20 км 9/3 600 м
[Cb calv Ac trans]
+27.6 +16.3 50 +31 +38 душно 1015.6 995.9
12 18.06 С 2 20 км 8/8 600 м
[Cb calv]
+29.8 +16.6 45 +33 +36 душно 1013.9 994.4
15 18.06 С 4-8
{14}
20 км {гроза, ливн. осадки} 5/5 600 м
[Cb calv]
+29.2 +17.7 50 +34 +35 очень
душно
1012.8 993.2 6
18 18.06 С 2-2
{3}
20 км {ливн. осадки} 9/3 600 м
[Cb calv Ci fib]
+24.6 +18.8 70 +29 +29 душно 1014.1 994.3 +30.5 0.0
21 18.06 С 1-5
{6}
10 км ясно +22.2 +19.0 82 +28 +28 душно 1015.3 995.3 6
00 19.06 С 1-2
{3}
10 км {гроза, ливн. осадки} ясно +20.4 +18.3 88 +25 +25 комфорт 1015.2 995.1
03 19.06 С 2 20 км 3/1 1000 м
[Cu hum Ci fib]
+20.2 +16.6 80 +24 +24 комфорт 1015.0 994.9
06 19.06 С 2 20 км ясно +24.3 +17.8 67 +28 +36 душно 1014.7 994.7 +19.9
09 19.06 С 2 20 км 8/8 1000 м
[Cu med, cong]
+28.5 +17.4 51 +33 +36 очень
душно
1014.2 994.4
12 19.06 СВ 1-4
{5}
20 км гроза, ливневой дождь 10/10 600 м
[Cb cap]
+21.3 +17.9 81 +25 +25 комфорт 1014.7 994.5
15 19.06 штиль 0 20 км {гроза, ливн. осадки} 8/0
[Ac As Ci fib]
+25.6 +19.3 68 +31 +35 очень
душно
1012.7 992.8
18 19.06 штиль 0-1
{2}
20 км {гроза, ливн. осадки} 8/3 600 м
[Cb calv Ac As]
+23.6 +19.7 79 +29 +29 душно 1012.6 992.6 +28.8 1
21 19.06 С 2-1
{2}
10 км ясно +23.0 +16.1 65 +27 +27 душно 1013.2 993.1
00 20.06 СВ 2 10 км ясно +20.9 +15.2 70 +25 +25 комфорт 1013.3 993.0
03 20.06 СВ 1-1
{1}
20 км 9/0
[Ci fib]
+20.2 +15.4 74 +24 +24 комфорт 1013.2 992.9
06 20.06 СВ 1-3
{3}
20 км 9/0
[Ci fib]
+24.9 +17.1 62 +29 +36 душно 1012.7 992.5 +19.4
09 20.06 С 2 20 км 8/5 1000 м
[Cu hum Ci fib]
+29.0 +16.6 47 +32 +40 душно 1012.3 992.7
12 20.06 С 1 20 км 9/6 1000 м
[Cu hum Ci fib]
+31.0 +13.8 35 +32 +39 жарко 1011.2 991.9

 

Местоположение метеостанции Штефан Водэ (Молдова): широта 46.52 долгота 29.48 высота над уровнем моря 173 м.

В архиве по умолчанию представлена погода в Штефан Водэ за последнюю неделю. Архивные данные за месяц целиком и за предыдущие месяцы, начиная с января 2011 года, Вы можете получить, выбрав интересующий диапазон дат из раскрывающегося списка и нажав кнопку "Ввод!".


*Определитесь, кто Вы:
робот инопланетянин человек

Внимание! Время в таблицах - всемирное. Для получения местного времени необходимо прибавить поправку, которая равна 2 ч.

Смотрите также архив погоды в соседних городах и на ближайших метеорологических станциях:

Погода в Тирасполе (Молдова) (43 км)
Погода в Заставе (Одесская область, Украина) (50 км)
Погода в Сарате (Одесская область, Украина) (58 км)
Погода в Раздельной (Одесская область, Украина) (59 км)
Погода в Чадыр-Лунге (Молдова) (65 км)
Погода в Кишиневе (Молдова) (67 км)
Погода в Балцате (Молдова) (68 км)
Погода в Комрате (Молдова) (70 км)
Погода в Белгород-Днестровском (Одесская область, Украина) (78 км)
Погода в Вилково (Одесская область, Украина) (78 км)

Пояснения к столбцам:

Ветер - указаны скорость ветра в м/с - средняя за 10 мин, порывы в срок и между сроками (в фигурных скобках) и направление, откуда дует ветер: С - северный, СВ - северо-восточный, В - восточный, ЮВ - юго-восточный, Ю - южный, ЮЗ - юго-западный, З - западный, СЗ - северо-западный.
Видимость - горизонтальная дальность видимости в метрах или километрах. При видимости от 1 до 10 км при отсутствии осадков обычно наблюдается дымка, при ухудшении видимости до 1 км и менее - туман. В сухую погоду видимость может ухудшаться дымом, пылью или мглою.
Явления - указаны атмосферные явления, наблюдавшиеся в срок или в последний час перед сроком; фигурными скобками обозначены явления, наблюдавшиеся между сроками (за 1-3 часа до срока); квадратными скобками обозначены град или гололедные отложения с указанием их диаметра в мм.
Облачность - указаны через наклонную черту общая и нижняя облачность в баллах и высота нижней границы облаков в метрах; квадратными скобками обозначены формы облаков: Ci - перистые, Cs - перисто-слоистые, Cc - перисто-кучевые, Ac - высококучевые, As - высокослоистые, Sc - слоисто-кучевые, Ns - слоисто-дождевые, Cu - кучевые, Cb - кучево-дождевые. Подробнее классификацию облаков см. в Атласе облаков (PDF).
T - Температура воздуха - температура, измеренная на высоте 2 м над землей.
Td - Температура точки росы - температура, при понижении до которой содержащийся в воздухе водяной пар достигнет насыщения.
f - Относительная влажность воздуха - влажноcть воздуха, измеренная на высоте 2 м над землей.
Te - Эффективная температура - температура, которую ощущает одетый по сезону человек в тени. Характеристика душности погоды. При расчете учитывается влияние влажности воздуха и скорости ветра на теплоощущения человека.
Tes - Эффективная температура на солнце - температура, которую ощущает человек, с поправкой на солнечный нагрев. Характеристика знойности погоды. Зависит от высоты солнца над горизонтом, облачности и скорости ветра. Ночью, в пасмурную погоду, а также при ветре 12 м/с и более поправка равна нулю.
P - Атмосферное давление - приведенное к уровню моря атмосферное давление.
Po - Атмосферное давление - измеренное на уровне метеостанции атмосферное давление.
Tmin - Минимальная температура - минимум температуры воздуха на высоте 2 м над землей.
Tmax - Максимальная температура - максимум температуры воздуха на высоте 2 м над землей.
R - Количество осадков - Количество выпавших осадков за период времени, мм. При наведении курсора мыши на число - период времени, за который выпало указанное количество осадков.
R24 - Количество осадков - Количество выпавших осадков за 24 часа, мм.
S - Снежный покров - Высота снежного покрова, см. При наведении курсора мыши на число - состояние снежного покрова и степень покрытия местности в баллах.